• In Kazakhstan
  • List of Countries
  • For 7 days
  • Water Temperature
  • Weather Map
  • News
  • Weather Widgets
  • user-avatar
    Login

    Hourly Weather Bruges

    Today, 8 December, Sunday

    Time Temperature Precipitation Wind Pressure Humidity
    00:00 +5°C° 0 mm 9 mps 756 mmHg 85%
    01:00 +6°C° 0 mm 10 mps 755 mmHg 85%
    02:00 +6°C° 0 mm 10 mps 754 mmHg 86%
    03:00 +6°C° 0 mm 11 mps 752 mmHg 86%
    04:00 +6°C° 0.7 mm 11 mps 752 mmHg 86%
    05:00 +7°C° 0.7 mm 12 mps 751 mmHg 87%
    06:00 +7°C° 0.7 mm 12 mps 751 mmHg 87%
    07:00 +8°C° 0.2 mm 12 mps 750 mmHg 86%
    08:00 +9°C° 0.2 mm 11 mps 750 mmHg 85%
    09:00 +11°C° 0.2 mm 11 mps 750 mmHg 85%
    10:00 +9°C° 0 mm 11 mps 750 mmHg 79%
    11:00 +9°C° 0 mm 10 mps 750 mmHg 73%
    12:00 +8°C° 0 mm 10 mps 751 mmHg 67%
    13:00 +8°C° 0 mm 10 mps 750 mmHg 67%
    14:00 +8°C° 0 mm 10 mps 750 mmHg 67%
    15:00 +8°C° 0 mm 9 mps 750 mmHg 68%
    16:00 +7°C° 0.4 mm 9 mps 749 mmHg 70%
    17:00 +7°C° 0.4 mm 9 mps 749 mmHg 72%
    18:00 +6°C° 0.4 mm 9 mps 749 mmHg 73%
    19:00 +6°C° 0.1 mm 10 mps 748 mmHg 74%
    20:00 +6°C° 0.1 mm 10 mps 748 mmHg 75%
    21:00 +5°C° 0.1 mm 10 mps 748 mmHg 76%
    22:00 +5°C° 0.1 mm 10 mps 747 mmHg 76%
    23:00 +4°C° 0.1 mm 11 mps 746 mmHg 76%

    Tomorrow, 9 December, Monday

    Time Temperature Precipitation Wind Pressure Humidity
    00:00 +4°C° 0.1 mm 11 mps 745 mmHg 75%
    01:00 +5°C° 0.5 mm 12 mps 744 mmHg 73%
    02:00 +5°C° 0.5 mm 14 mps 743 mmHg 71%
    03:00 +5°C° 0.5 mm 15 mps 742 mmHg 69%
    04:00 +5°C° 0.3 mm 13 mps 743 mmHg 74%
    05:00 +5°C° 0.3 mm 12 mps 743 mmHg 78%
    06:00 +6°C° 0.3 mm 10 mps 744 mmHg 83%
    07:00 +5°C° 0.2 mm 12 mps 745 mmHg 78%
    08:00 +5°C° 0.2 mm 13 mps 746 mmHg 74%
    09:00 +5°C° 0.2 mm 14 mps 747 mmHg 70%
    10:00 +5°C° 0.3 mm 15 mps 749 mmHg 70%
    11:00 +5°C° 0.3 mm 15 mps 750 mmHg 70%
    12:00 +5°C° 0.3 mm 16 mps 752 mmHg 70%
    13:00 +5°C° 0.1 mm 15 mps 754 mmHg 67%
    14:00 +5°C° 0.1 mm 14 mps 755 mmHg 65%
    15:00 +4°C° 0.1 mm 13 mps 757 mmHg 62%
    16:00 +4°C° 0 mm 12 mps 759 mmHg 63%
    17:00 +3°C° 0 mm 11 mps 761 mmHg 64%
    18:00 +3°C° 0 mm 10 mps 762 mmHg 65%
    19:00 +3°C° 0 mm 9 mps 763 mmHg 65%
    20:00 +3°C° 0 mm 9 mps 764 mmHg 66%
    21:00 +2°C° 0 mm 8 mps 765 mmHg 66%
    22:00 +3°C° 0 mm 7 mps 766 mmHg 68%
    23:00 +3°C° 0 mm 6 mps 766 mmHg 70%

    Day after tomorrow, 10 December, Tuesday

    Time Temperature Precipitation Wind Pressure Humidity
    00:00 +2°C° 0 mm 5 mps 767 mmHg 73%
    01:00 +3°C° 0 mm 4 mps 767 mmHg 73%
    02:00 +1°C° 0 mm 4 mps 767 mmHg 72%
    03:00 +2°C° 0 mm 3 mps 767 mmHg 72%
    04:00 +2°C° 0 mm 3 mps 767 mmHg 74%
    05:00 0°C° 0 mm 4 mps 767 mmHg 75%
    06:00 0°C° 0 mm 4 mps 767 mmHg 77%
    07:00 0°C° 0 mm 5 mps 767 mmHg 77%
    08:00 +1°C° 0 mm 6 mps 767 mmHg 77%
    09:00 0°C° 0 mm 7 mps 766 mmHg 77%
    10:00 +2°C° 0 mm 7 mps 766 mmHg 75%
    11:00 +2°C° 0 mm 8 mps 765 mmHg 73%
    12:00 +3°C° 0 mm 9 mps 764 mmHg 71%
    13:00 +3°C° 0 mm 9 mps 763 mmHg 72%
    14:00 +3°C° 0 mm 9 mps 762 mmHg 73%
    15:00 +3°C° 0 mm 10 mps 761 mmHg 74%
    16:00 +3°C° 0.1 mm 10 mps 760 mmHg 74%
    17:00 +3°C° 0.1 mm 11 mps 759 mmHg 74%
    18:00 +3°C° 0.1 mm 12 mps 759 mmHg 75%
    19:00 +3°C° 0.1 mm 12 mps 758 mmHg 77%
    20:00 +3°C° 0.1 mm 12 mps 758 mmHg 79%
    21:00 +3°C° 0.1 mm 12 mps 757 mmHg 81%
    22:00 +4°C° 0.6 mm 11 mps 757 mmHg 84%
    23:00 +5°C° 0.6 mm 9 mps 757 mmHg 86%

    11 December, Wednesday

    Time Temperature Precipitation Wind Pressure Humidity
    00:00 +6°C° 0.6 mm 8 mps 757 mmHg 88%
    01:00 +7°C° 0.4 mm 6 mps 757 mmHg 87%
    02:00 +6°C° 0.4 mm 5 mps 757 mmHg 86%
    03:00 +7°C° 0.4 mm 3 mps 757 mmHg 85%
    04:00 +5°C° 0.1 mm 4 mps 757 mmHg 85%
    05:00 +5°C° 0.1 mm 4 mps 756 mmHg 86%
    06:00 +5°C° 0.1 mm 4 mps 756 mmHg 87%
    07:00 +5°C° 0 mm 4 mps 756 mmHg 86%
    08:00 +4°C° 0 mm 4 mps 756 mmHg 85%
    09:00 +4°C° 0 mm 4 mps 755 mmHg 85%
    10:00 +5°C° 0 mm 5 mps 755 mmHg 80%
    11:00 +6°C° 0 mm 5 mps 754 mmHg 74%
    12:00 +7°C° 0 mm 6 mps 754 mmHg 69%
    13:00 +5°C° 0.1 mm 6 mps 753 mmHg 72%
    14:00 +5°C° 0.1 mm 7 mps 752 mmHg 75%
    15:00 +5°C° 0.1 mm 7 mps 752 mmHg 78%
    16:00 +4°C° 1.7 mm 8 mps 751 mmHg 82%
    17:00 +4°C° 1.7 mm 8 mps 751 mmHg 85%
    18:00 +2°C° 1.7 mm 8 mps 750 mmHg 88%
    19:00 +2°C° 0.6 mm 8 mps 750 mmHg 85%
    20:00 +3°C° 0.6 mm 7 mps 750 mmHg 82%
    21:00 +3°C° 0.6 mm 7 mps 751 mmHg 78%
    22:00 +3°C° 0.1 mm 7 mps 751 mmHg 77%
    23:00 +2°C° 0.1 mm 7 mps 751 mmHg 77%

    12 December, Thursday

    Time Temperature Precipitation Wind Pressure Humidity
    00:00 +2°C° 0.1 mm 7 mps 752 mmHg 76%
    01:00 +2°C° 0.1 mm 7 mps 752 mmHg 76%
    02:00 +2°C° 0.1 mm 7 mps 753 mmHg 76%
    03:00 +2°C° 0.1 mm 7 mps 753 mmHg 77%
    04:00 +2°C° 0 mm 7 mps 753 mmHg 77%
    05:00 +2°C° 0 mm 7 mps 753 mmHg 77%
    06:00 0°C° 0 mm 7 mps 753 mmHg 77%
    07:00 0°C° 0 mm 7 mps 753 mmHg 78%
    08:00 +1°C° 0 mm 8 mps 753 mmHg 79%
    09:00 +1°C° 0 mm 8 mps 753 mmHg 80%
    10:00 +2°C° 0 mm 10 mps 752 mmHg 78%
    11:00 +2°C° 0 mm 11 mps 751 mmHg 76%
    12:00 +3°C° 0 mm 12 mps 750 mmHg 75%
    13:00 +3°C° 0.2 mm 13 mps 748 mmHg 78%
    14:00 +3°C° 0.2 mm 14 mps 746 mmHg 81%
    15:00 +4°C° 0.2 mm 14 mps 744 mmHg 84%
    16:00 +4°C° 1.3 mm 14 mps 742 mmHg 85%
    17:00 +5°C° 1.3 mm 13 mps 741 mmHg 86%
    18:00 +5°C° 1.3 mm 13 mps 739 mmHg 87%
    19:00 +7°C° 1.4 mm 13 mps 738 mmHg 87%
    20:00 +8°C° 1.4 mm 12 mps 736 mmHg 88%
    21:00 +8°C° 1.4 mm 12 mps 734 mmHg 89%
    22:00 +8°C° 3.9 mm 12 mps 733 mmHg 86%
    23:00 +8°C° 3.9 mm 12 mps 732 mmHg 83%

    13 December, Friday

    Time Temperature Precipitation Wind Pressure Humidity
    00:00 +8°C° 3.9 mm 12 mps 731 mmHg 80%
    01:00 +7°C° 0.3 mm 12 mps 732 mmHg 76%
    02:00 +5°C° 0.3 mm 13 mps 733 mmHg 72%
    03:00 +5°C° 0.3 mm 13 mps 734 mmHg 68%
    04:00 +4°C° 0.1 mm 13 mps 734 mmHg 67%
    05:00 +4°C° 0.1 mm 12 mps 734 mmHg 66%
    06:00 +3°C° 0.1 mm 12 mps 735 mmHg 64%
    07:00 +3°C° 0.1 mm 13 mps 735 mmHg 64%
    08:00 +3°C° 0.1 mm 13 mps 736 mmHg 63%
    09:00 +3°C° 0.1 mm 14 mps 737 mmHg 62%
    10:00 +4°C° 0 mm 14 mps 737 mmHg 61%
    11:00 +4°C° 0 mm 14 mps 738 mmHg 60%
    12:00 +5°C° 0 mm 15 mps 738 mmHg 58%
    13:00 +5°C° 0 mm 14 mps 739 mmHg 59%
    14:00 +5°C° 0 mm 13 mps 740 mmHg 60%
    15:00 +4°C° 0 mm 12 mps 741 mmHg 61%
    16:00 +4°C° 0 mm 12 mps 741 mmHg 63%
    17:00 +4°C° 0 mm 11 mps 742 mmHg 64%
    18:00 +3°C° 0 mm 11 mps 742 mmHg 65%
    19:00 +3°C° 0 mm 10 mps 743 mmHg 66%
    20:00 +3°C° 0 mm 10 mps 743 mmHg 68%
    21:00 +3°C° 0 mm 10 mps 743 mmHg 69%
    22:00 +3°C° 0 mm 9 mps 743 mmHg 71%
    23:00 +4°C° 0 mm 8 mps 743 mmHg 73%
    Show more